Tracking 30743 objects as of 22-Jun-2025
HD Live streaming from Space Station
objects crossing your sky now

STARLINK-1860

Track STARLINK-1860 now!
10-day predictions
STARLINK-1860 is classified as:


NORAD ID: 47147
Int'l Code: 2020-088AB
Perigee: 281.7 km
Apogee: 297.8 km
Inclination: 53.0 °
Period: 90.2 minutes
Semi major axis: 6660 km
RCS: Unknown
Launch date: November 25, 2020
Source: United States (US)
Launch site: AIR FORCE EASTERN TEST RANGE (AFETR)
Your satellite tracking list
Your tracking list is empty




NASA's NSSDC Master Catalog

Two Line Element Set (TLE):
1 47147U 20088AB  25171.66668981  .00675026  20782-3  15143-2 0  9991
2 47147  53.0019 318.0515 0012063 298.7372  27.5200 15.97048836253700
Source of the keplerian elements: AFSPC